STARLINK-1614 (46124 NORAD) Tracking and Keplerian Element Data

This shows tracking and keplerian element data for the satellite.

Feedback or suggestion? Click here.




ElementValue
Catalog46124
NameSTARLINK-1614
Epoch Orbit179
Epoch Day338.66668981
Epoch Year2020
RAAN275.6827
Inclination52.9987
Eccentricity0.0004139
Argument of Perigee3.4864
Mean Anonmoly12.6751
Mean Motion15.62746414
Decay Rate0.00013926
L11 46124U 20057H 20338.66668981 .00013926 00000-0 15768-3 0 9998
L22 46124 52.9987 275.6827 0004139 3.4864 12.6751 15.62746414 1797

Live tracking and technical data element details for STARLINK-1614 (NORAD 46124). STARLINK-1614 can be tracked NOW for your location showing map with azimuth and elevation plus other details from your city location.

Track the satellite on the map from your city or location and see movement details for azimuth, elevation, latitude, longitude, range, height, and movement on the map or in text.







IsCatalogInMostPopularTable: catalog: 46124, numindb: 17
Update: records affected: 1



GetName: 46124 STARLINK-1614

Hit Count: updated at: Sun, 06 Dec 2020 02:06:15 GMT